Location: Cardiff
(53.7833°N, 113.6000°W)
Time: 01:29:10
(UTC+00:00)

AO-85 - Pass Details

Date: 04 December 2023
Orbit: 516 x 753 km, 64.8° (Epoch: 04 January)

Event Time Altitude Azimuth Distance (km) Brightness Sun altitude
Rises 02:00:51 0° 309° (NW) 2,777 ? -23.0°
Reaches altitude 10° 02:03:22 10° 323° (NW) 1,915 ? -23.4°
Enters shadow 02:05:52 22° 357° (N) 1,320 ? -23.8°
